EW1557 Bluffton SC US current weather conditions

sailwx.info

Wind from 331

Air temperature 8.3° C
Dewpoint 7.6° C

Last reported at 2020-Jan-25 11:15 UTC.
Time now 2020-Jan-25 13:27 UTC

Location: N 32°16' W 080°54'.
View on Google Maps.

See reports from other nearby stations

  
Tides and Currents Weather Stations Pressure Air Temp Water Temp Dewpoint Dewpoint Depression Visibility Wind Speed Wind Dir Waves Ship Positions
date/time (UTC)wind fromknots sea level pressurealtimeterstation pressurevisibilityair tempwater tempwave heightnotes
2020-Jan-25 11:15 331 8.3
2020-Jan-25 10:45 331 8.9
2020-Jan-25 10:15 331 9.4
2020-Jan-25 09:15 331 10.6
2020-Jan-25 08:02 205 12.2
2020-Jan-24 21:46 051 17.8
2020-Jan-24 21:01 313 17.8
2020-Jan-24 19:15 013 17.8
2020-Jan-24 18:45 209 17.8
2020-Jan-24 11:45 084 11.1
2020-Jan-24 00:00 049 10.0
2020-Jan-23 23:30 049 10.6
2020-Jan-23 23:00 049 10.6
2020-Jan-23 22:30 049 11.1
2020-Jan-23 22:16 049 11.1
2020-Jan-23 21:30 069 11.1
2020-Jan-23 21:15 088 11.1
2020-Jan-23 21:00 062 11.1
2020-Jan-23 18:00 245 10.0
2020-Jan-23 17:30 245 10.0
2020-Jan-23 13:30 074 5.6
2020-Jan-23 13:00 074 5.0